カタログに戻る

STARLINK-36040

運用中通信VLEO
NORAD 66614·PAYLOAD·🇺🇸 United States

打ち上げ Nov 22, 2025 から Cape Canaveral Space Force Station

Loading…

次のパス (今後24時間)

TLE

最新Source: CelesTrak SupGP

元期: Sep 15, 2026, 02:51 UTC

1 66614C 25270AC  26258.11923611 -.00025026  00000+0 -90651-3 0  2584
2 66614  43.0041  66.7272 0001670 273.1319  50.2796 15.27588683    10

AllMySatでSTARLINK-36040をリアルタイム追跡

Download on the App Store